timestamp,wind_dir_avg,wind_spd_max_dir,wind_spd_avg,wind_spd_gust,battery_voltage,lat,long
2019-01-04 00:00:00+00:00,12.0,17.0,4.0,4.97,,47.59359,-54.27349
2019-01-04 00:10:00+00:00,336.0,342.0,2.93,3.68,,47.59359,-54.27349
2019-01-04 00:20:00+00:00,326.0,324.0,2.72,3.83,,47.59359,-54.27349
2019-01-04 00:30:00+00:00,341.0,342.0,3.75,4.29,,47.59359,-54.27349
2019-01-04 00:40:00+00:00,350.0,355.0,4.35,5.05,,47.59359,-54.27349
2019-01-04 00:50:00+00:00,358.0,359.0,3.81,4.39,,47.59359,-54.27349
2019-01-04 01:00:00+00:00,8.0,12.0,4.05,4.57,,47.59359,-54.27349
2019-01-04 01:10:00+00:00,358.0,0.0,3.9,4.54,,47.59359,-54.27349
2019-01-04 01:20:00+00:00,19.0,23.0,3.54,4.37,,47.59359,-54.27349
2019-01-04 01:30:00+00:00,15.0,12.0,3.91,4.68,,47.59359,-54.27349
2019-01-04 01:40:00+00:00,15.0,16.0,4.77,5.39,,47.59359,-54.27349
2019-01-04 01:50:00+00:00,11.0,12.0,4.32,5.37,,47.59359,-54.27349
2019-01-04 02:00:00+00:00,3.0,5.0,4.09,5.11,,47.59359,-54.27349
2019-01-04 02:10:00+00:00,6.0,15.0,3.4,4.2,,47.59359,-54.27349
2019-01-04 02:20:00+00:00,30.0,39.0,2.75,3.67,,47.59359,-54.27349
2019-01-04 02:30:00+00:00,344.0,346.0,1.75,2.33,,47.59359,-54.27349
2019-01-04 02:40:00+00:00,17.0,6.0,1.97,2.75,,47.59359,-54.27349
2019-01-04 02:50:00+00:00,8.0,12.0,3.2,3.92,,47.59359,-54.27349
2019-01-04 03:00:00+00:00,344.0,355.0,3.04,3.76,,47.59359,-54.27349
2019-01-04 03:10:00+00:00,343.0,336.0,2.26,2.85,,47.59359,-54.27349
2019-01-04 03:20:00+00:00,358.0,350.0,1.44,2.01,,47.59359,-54.27349
2019-01-04 03:30:00+00:00,326.0,352.0,1.0,1.86,,47.59359,-54.27349
2019-01-04 03:40:00+00:00,15.0,16.0,1.49,1.99,,47.59359,-54.27349
2019-01-04 03:50:00+00:00,9.0,3.0,2.39,3.25,,47.59359,-54.27349
2019-01-04 04:00:00+00:00,26.0,26.0,2.22,2.99,,47.59359,-54.27349
2019-01-04 04:10:00+00:00,355.0,347.0,3.12,4.03,,47.59359,-54.27349
2019-01-04 04:20:00+00:00,347.0,345.0,3.21,4.08,,47.59359,-54.27349
2019-01-04 04:30:00+00:00,348.0,348.0,3.19,4.1,,47.59359,-54.27349
2019-01-04 04:40:00+00:00,6.0,12.0,3.03,3.74,,47.59359,-54.27349
2019-01-04 04:50:00+00:00,8.0,4.0,2.4,3.24,,47.59359,-54.27349
2019-01-04 05:00:00+00:00,4.0,5.0,2.72,3.49,,47.59359,-54.27349
2019-01-04 05:10:00+00:00,13.0,33.0,1.81,2.15,,47.59359,-54.27349
2019-01-04 05:20:00+00:00,338.0,345.0,2.68,3.48,,47.59359,-54.27349
2019-01-04 05:30:00+00:00,357.0,353.0,2.98,3.69,,47.59359,-54.27349
2019-01-04 05:40:00+00:00,344.0,349.0,1.92,2.67,,47.59359,-54.27349
2019-01-04 05:50:00+00:00,23.0,9.0,1.68,2.13,,47.59359,-54.27349
2019-01-04 06:00:00+00:00,265.0,269.0,1.92,2.41,,47.59359,-54.27349
2019-01-04 06:10:00+00:00,339.0,338.0,1.29,1.8,,47.59359,-54.27349
2019-01-04 06:20:00+00:00,309.0,300.0,2.76,3.47,,47.59359,-54.27349
2019-01-04 06:30:00+00:00,305.0,303.0,3.2,3.98,,47.59359,-54.27349
2019-01-04 06:40:00+00:00,301.0,302.0,4.1,4.71,,47.59359,-54.27349
2019-01-04 06:50:00+00:00,307.0,310.0,4.78,5.34,,47.59359,-54.27349
2019-01-04 07:00:00+00:00,318.0,321.0,5.05,5.51,,47.59359,-54.27349
2019-01-04 07:10:00+00:00,319.0,319.0,5.55,6.1,,47.59359,-54.27349
2019-01-04 07:20:00+00:00,333.0,326.0,4.93,5.59,,47.59359,-54.27349
2019-01-04 07:30:00+00:00,339.0,339.0,5.05,5.72,,47.59359,-54.27349
2019-01-04 07:40:00+00:00,337.0,338.0,4.97,5.84,,47.59359,-54.27349
2019-01-04 07:50:00+00:00,338.0,338.0,5.04,5.93,,47.59359,-54.27349
2019-01-04 08:00:00+00:00,349.0,346.0,4.3,4.96,,47.59359,-54.27349
2019-01-04 08:10:00+00:00,347.0,346.0,1.95,3.04,,47.59359,-54.27349
2019-01-04 08:20:00+00:00,352.0,350.0,3.19,4.44,,47.59359,-54.27349
2019-01-04 08:30:00+00:00,0.0,352.0,3.18,3.9,,47.59359,-54.27349
2019-01-04 08:40:00+00:00,347.0,355.0,2.91,5.32,,47.59359,-54.27349
2019-01-04 08:50:00+00:00,337.0,344.0,4.1,5.77,,47.59359,-54.27349
2019-01-04 09:00:00+00:00,335.0,327.0,3.84,6.73,,47.59359,-54.27349
2019-01-04 09:10:00+00:00,330.0,331.0,5.14,8.32,,47.59359,-54.27349
2019-01-04 09:20:00+00:00,326.0,327.0,5.37,6.26,,47.59359,-54.27349
2019-01-04 09:30:00+00:00,340.0,348.0,4.31,5.53,,47.59359,-54.27349
2019-01-04 09:40:00+00:00,17.0,20.0,3.73,5.28,,47.59359,-54.27349
2019-01-04 09:50:00+00:00,34.0,32.0,3.33,4.43,,47.59359,-54.27349
2019-01-04 10:00:00+00:00,352.0,349.0,4.82,6.07,,47.59359,-54.27349
2019-01-04 10:10:00+00:00,348.0,345.0,4.89,6.25,,47.59359,-54.27349
2019-01-04 10:20:00+00:00,347.0,346.0,6.05,7.48,,47.59359,-54.27349
2019-01-04 10:30:00+00:00,348.0,355.0,5.71,7.43,,47.59359,-54.27349
2019-01-04 10:40:00+00:00,331.0,329.0,5.25,7.26,,47.59359,-54.27349
2019-01-04 10:50:00+00:00,349.0,350.0,5.68,7.06,,47.59359,-54.27349
2019-01-04 11:00:00+00:00,4.0,3.0,6.14,7.15,,47.59359,-54.27349
2019-01-04 11:10:00+00:00,358.0,4.0,4.86,6.0,,47.59359,-54.27349
2019-01-04 11:20:00+00:00,17.0,12.0,4.53,6.3,,47.59359,-54.27349
2019-01-04 11:30:00+00:00,10.0,11.0,6.96,7.79,,47.59359,-54.27349
2019-01-04 11:40:00+00:00,351.0,345.0,6.29,7.49,,47.59359,-54.27349
2019-01-04 11:50:00+00:00,19.0,12.0,3.59,4.74,,47.59359,-54.27349
2019-01-04 12:00:00+00:00,19.0,7.0,2.02,3.97,,47.59359,-54.27349
2019-01-04 12:10:00+00:00,37.0,43.0,3.84,5.09,,47.59359,-54.27349
2019-01-04 12:20:00+00:00,32.0,24.0,4.27,6.28,,47.59359,-54.27349
2019-01-04 12:30:00+00:00,356.0,5.0,2.28,2.97,,47.59359,-54.27349
2019-01-04 12:40:00+00:00,346.0,359.0,1.87,2.66,,47.59359,-54.27349
2019-01-04 12:50:00+00:00,44.0,47.0,2.63,3.7,,47.59359,-54.27349
2019-01-04 13:00:00+00:00,37.0,37.0,1.02,1.36,,47.59359,-54.27349
2019-01-04 13:10:00+00:00,18.0,16.0,1.9,2.36,,47.59359,-54.27349
2019-01-04 13:20:00+00:00,331.0,355.0,0.96,1.98,,47.59359,-54.27349
2019-01-04 13:30:00+00:00,197.0,182.0,0.89,1.59,,47.59359,-54.27349
2019-01-04 13:40:00+00:00,184.0,160.0,0.86,1.38,,47.59359,-54.27349
2019-01-04 13:50:00+00:00,104.0,85.0,0.59,1.34,,47.59359,-54.27349
2019-01-04 14:00:00+00:00,329.0,323.0,0.31,0.77,,47.59359,-54.27349
2019-01-04 14:10:00+00:00,188.0,186.0,1.13,1.63,,47.59359,-54.27349
2019-01-04 14:20:00+00:00,146.0,146.0,1.61,2.25,,47.59359,-54.27349
2019-01-04 14:30:00+00:00,173.0,170.0,1.92,2.47,,47.59359,-54.27349
2019-01-04 14:40:00+00:00,169.0,178.0,1.16,1.38,,47.59359,-54.27349
2019-01-04 14:50:00+00:00,75.0,76.0,2.94,3.44,,47.59359,-54.27349
2019-01-04 15:00:00+00:00,42.0,38.0,1.96,2.26,,47.59359,-54.27349
2019-01-04 15:10:00+00:00,46.0,46.0,2.47,2.95,,47.59359,-54.27349
2019-01-04 15:20:00+00:00,17.0,14.0,1.85,2.38,,47.59359,-54.27349
2019-01-04 15:30:00+00:00,110.0,116.0,1.36,2.23,,47.59359,-54.27349
2019-01-04 15:40:00+00:00,49.0,42.0,1.5,2.17,,47.59359,-54.27349
2019-01-04 15:50:00+00:00,41.0,2.0,0.65,1.63,,47.59359,-54.27349
2019-01-04 16:00:00+00:00,41.0,40.0,1.38,2.38,,47.59359,-54.27349
2019-01-04 16:10:00+00:00,25.0,34.0,1.62,2.38,,47.59359,-54.27349
2019-01-04 16:20:00+00:00,357.0,10.0,1.78,2.62,,47.59359,-54.27349
2019-01-04 16:30:00+00:00,357.0,4.0,2.14,2.64,,47.59359,-54.27349
2019-01-04 16:40:00+00:00,36.0,39.0,1.67,2.21,,47.59359,-54.27349
2019-01-04 16:50:00+00:00,27.0,19.0,1.53,1.96,,47.59359,-54.27349
2019-01-04 17:00:00+00:00,335.0,353.0,0.12,0.55,,47.59359,-54.27349
2019-01-04 17:10:00+00:00,71.0,67.0,0.06,0.33,,47.59359,-54.27349
2019-01-04 17:20:00+00:00,293.0,290.0,0.86,1.62,,47.59359,-54.27349
2019-01-04 17:30:00+00:00,290.0,290.0,1.25,1.82,,47.59359,-54.27349
2019-01-04 17:40:00+00:00,241.0,234.0,1.07,1.45,,47.59359,-54.27349
2019-01-04 17:50:00+00:00,212.0,205.0,0.91,1.22,,47.59359,-54.27349
2019-01-04 18:00:00+00:00,204.0,207.0,0.97,1.25,,47.59359,-54.27349
2019-01-04 18:10:00+00:00,315.0,283.0,0.44,0.78,,47.59359,-54.27349
2019-01-04 18:20:00+00:00,86.0,47.0,0.29,0.53,,47.59359,-54.27349
2019-01-04 18:30:00+00:00,303.0,239.0,0.03,0.43,,47.59359,-54.27349
2019-01-04 18:40:00+00:00,166.0,153.0,0.33,0.87,,47.59359,-54.27349
2019-01-04 18:50:00+00:00,147.0,155.0,1.32,1.81,,47.59359,-54.27349
2019-01-04 19:00:00+00:00,166.0,171.0,2.03,2.64,,47.59359,-54.27349
2019-01-04 19:10:00+00:00,172.0,176.0,0.53,0.75,,47.59359,-54.27349
2019-01-04 19:20:00+00:00,185.0,182.0,2.04,2.86,,47.59359,-54.27349
2019-01-04 19:30:00+00:00,130.0,136.0,1.77,2.14,,47.59359,-54.27349
2019-01-04 19:40:00+00:00,169.0,177.0,2.58,3.02,,47.59359,-54.27349
2019-01-04 19:50:00+00:00,147.0,148.0,2.3,2.71,,47.59359,-54.27349
2019-01-04 20:00:00+00:00,148.0,144.0,2.23,2.87,,47.59359,-54.27349
2019-01-04 20:10:00+00:00,148.0,142.0,2.37,3.0,,47.59359,-54.27349
2019-01-04 20:20:00+00:00,151.0,147.0,2.68,3.33,,47.59359,-54.27349
2019-01-04 20:30:00+00:00,132.0,129.0,2.36,2.8,,47.59359,-54.27349
2019-01-04 20:40:00+00:00,180.0,165.0,1.95,2.31,,47.59359,-54.27349
2019-01-04 20:50:00+00:00,154.0,167.0,2.35,2.97,,47.59359,-54.27349
2019-01-04 21:00:00+00:00,160.0,159.0,2.61,3.61,,47.59359,-54.27349
2019-01-04 21:10:00+00:00,155.0,150.0,2.87,3.48,,47.59359,-54.27349
2019-01-04 21:20:00+00:00,149.0,143.0,2.13,2.74,,47.59359,-54.27349
2019-01-04 21:30:00+00:00,143.0,141.0,1.7,2.07,,47.59359,-54.27349
2019-01-04 21:40:00+00:00,144.0,149.0,2.54,3.32,,47.59359,-54.27349
2019-01-04 21:50:00+00:00,163.0,175.0,2.96,3.98,,47.59359,-54.27349
2019-01-04 22:00:00+00:00,167.0,167.0,3.57,4.14,,47.59359,-54.27349
2019-01-04 22:10:00+00:00,147.0,155.0,4.59,5.81,,47.59359,-54.27349
2019-01-04 22:20:00+00:00,156.0,154.0,4.06,4.75,,47.59359,-54.27349
2019-01-04 22:30:00+00:00,147.0,148.0,4.45,4.98,,47.59359,-54.27349
2019-01-04 22:40:00+00:00,151.0,151.0,4.21,4.73,,47.59359,-54.27349
2019-01-04 22:50:00+00:00,173.0,169.0,4.08,4.67,,47.59359,-54.27349
2019-01-04 23:00:00+00:00,177.0,184.0,4.13,4.51,,47.59359,-54.27349
2019-01-04 23:10:00+00:00,148.0,149.0,3.73,4.33,,47.59359,-54.27349
2019-01-04 23:20:00+00:00,165.0,165.0,4.43,5.26,,47.59359,-54.27349
2019-01-04 23:30:00+00:00,159.0,159.0,5.16,5.74,,47.59359,-54.27349
2019-01-04 23:40:00+00:00,167.0,164.0,4.79,5.49,,47.59359,-54.27349
2019-01-04 23:50:00+00:00,170.0,171.0,4.96,5.67,,47.59359,-54.27349
